Location: Moy Burn
(57.3833°N, 4.0667°W)
Time: 09:34:17
(UTC+00:00)

Landsat 7 - Pass Details

Date: 08 August 2020
Orbit: 701 x 703 km, 98.1° (Epoch: 19 September)

Event Time Altitude Azimuth Distance (km) Brightness Sun altitude
Exits shadow 21:08:59 - 166° (SSE) 2,758 6.4 -6.7°
Reaches altitude 10° 21:10:26 10° 168° (SSE) 2,170 5.9 -6.8°
Maximum altitude 21:15:12 78° 255° (WSW) 726 4.0 -7.3°
Drops below altitude 10° 21:20:00 10° 342° (NNW) 2,186 7.5 -7.7°
Sets 21:22:17 0° 344° (NNW) 3,109 8.4 -7.9°
